Weather History for North Bend, OR

Change the Weather History Date:

Sunday, February 19, 2012

  Actual Average Record
Temperature  
Mean Temperature 43 °F 47 °F  
Max Temperature 52 °F 53 °F 67 °F (1935)
Min Temperature 34 °F 40 °F 27 °F (1955)
Degree Days  
Heating Degree Days 22 18  
Month to date heating degree days 341 359  
Since 1 July heating degree days 2937 3014  
Cooling Degree Days 0 0  
Month to date cooling degree days 0 0  
Year to date cooling degree days 0 0  
Moisture  
Dew Point 29 °F    
Average Humidity 62    
Maximum Humidity 76    
Minimum Humidity 46    
Precipitation  
Precipitation 0.14 in 0.27 in 1.50 in (1968)
Month to date precipitation 1.68 5.13  
Year to date precipitation 6.44 15.32  
Sea Level Pressure  
Sea Level Pressure 30.16 in    
Wind  
Wind Speed 9 mph (South)    
Max Wind Speed 12 mph    
Max Gust Speed 16 mph    
Visibility 10 miles    
Events      
T = Trace of Precipitation, MM = Missing Value Source: NWS Daily Summary

Daily Weather History Graph

Daily Weather History Graph

Search for Another Location

Airport:

Trip Planner

Search our weather history database for the weather conditions in past years. The results will help you decide how hot, cold, wet, or windy it might be!

Date:

Astronomy

Feb. 19, 2012 Rise Set
Actual Time 7:09 AM PST 5:52 PM PST
Civil Twilight 6:40 AM PST 6:21 PM PST
Nautical Twilight 6:07 AM PST 6:54 PM PST
Astronomical Twilight 5:34 AM PST 7:28 PM PST
Moon 5:37 AM PST (2/19) 3:57 PM PST (2/19)
Length of Visible Light 11h 40m
Length of Day
10h 42m
Waning Crescent, 5% of the Moon is Illuminated
Feb 19
Waning Crescent
Feb 21
New
Feb 29
First Quarter
Mar 8
Full
Mar 14
Last Quarter

Hourly Weather History & Observations

Time (PST) Temp. Windchill Dew Point Humidity Pressure Visibility Wind Dir Wind Speed Gust Speed Precip Events Conditions
12:15 AM 39.2 °F 33.0 °F 30.2 °F 70% 30.29 in 10.0 mi SE 9.2 mph - N/A   Overcast
12:35 AM 39.2 °F 33.0 °F 30.2 °F 70% 30.29 in 10.0 mi SSE 9.2 mph - N/A   Overcast
12:55 AM 39.2 °F 33.0 °F 30.2 °F 70% 30.28 in 10.0 mi SSE 9.2 mph - N/A   Mostly Cloudy
1:15 AM 37.4 °F 30.8 °F 30.2 °F 75% 30.28 in 10.0 mi SE 9.2 mph - N/A   Mostly Cloudy
1:35 AM 37.4 °F 30.3 °F 30.2 °F 75% 30.27 in 10.0 mi SE 10.4 mph - N/A   Mostly Cloudy
1:55 AM 37.4 °F 31.4 °F 30.2 °F 75% 30.27 in 10.0 mi SE 8.1 mph - N/A   Mostly Cloudy
2:15 AM 37.4 °F 30.8 °F 28.4 °F 70% 30.27 in 10.0 mi SE 9.2 mph - N/A   Mostly Cloudy
2:35 AM 37.4 °F 30.8 °F 30.2 °F 75% 30.27 in 10.0 mi SSE 9.2 mph - N/A   Overcast
2:55 AM 35.6 °F 28.6 °F 28.4 °F 75% 30.26 in 10.0 mi SSE 9.2 mph - N/A   Mostly Cloudy
3:15 AM 35.6 °F 28.6 °F 28.4 °F 75% 30.25 in 10.0 mi SSE 9.2 mph - N/A   Partly Cloudy
3:35 AM 37.4 °F 30.3 °F 28.4 °F 70% 30.23 in 10.0 mi SSE 10.4 mph - N/A   Mostly Cloudy
3:55 AM 35.6 °F 28.6 °F 28.4 °F 75% 30.23 in 10.0 mi SSE 9.2 mph - N/A   Overcast
4:15 AM 35.6 °F 29.2 °F 28.4 °F 75% 30.23 in 10.0 mi SSE 8.1 mph - N/A   Overcast
4:35 AM 35.6 °F 29.9 °F 28.4 °F 75% 30.23 in 10.0 mi SE 6.9 mph - N/A   Overcast
4:55 AM 35.6 °F 29.2 °F 26.6 °F 70% 30.22 in 10.0 mi SSE 8.1 mph - N/A   Scattered Clouds
5:15 AM 33.8 °F 27.7 °F 26.6 °F 75% 30.22 in 10.0 mi SSE 6.9 mph - N/A   Clear
5:35 AM 33.8 °F 27.7 °F 26.6 °F 75% 30.22 in 10.0 mi SSE 6.9 mph - N/A   Clear
5:55 AM 33.8 °F 27.7 °F 26.6 °F 75% 30.22 in 10.0 mi SE 6.9 mph - N/A   Clear
6:15 AM 33.8 °F 26.4 °F 26.6 °F 75% 30.21 in 10.0 mi ESE 9.2 mph - N/A   Clear
6:35 AM 35.6 °F 28.0 °F 26.6 °F 70% 30.21 in 10.0 mi SE 10.4 mph - N/A   Mostly Cloudy
6:55 AM 35.6 °F 29.2 °F 26.6 °F 70% 30.19 in 10.0 mi SE 8.1 mph - N/A   Overcast
7:15 AM 35.6 °F 29.2 °F 26.6 °F 70% 30.17 in 10.0 mi SE 8.1 mph - N/A   Overcast
7:35 AM 35.6 °F 29.2 °F 28.4 °F 75% 30.17 in 10.0 mi SSE 8.1 mph - N/A   Overcast
7:55 AM 37.4 °F 31.4 °F 28.4 °F 70% 30.19 in 10.0 mi SSE 8.1 mph - N/A   Overcast
8:15 AM 37.4 °F 32.8 °F 30.2 °F 75% 30.18 in 10.0 mi SSE 5.8 mph - N/A   Overcast
8:35 AM 39.2 °F 35.0 °F 28.4 °F 65% 30.19 in 10.0 mi SSE 5.8 mph - N/A   Partly Cloudy
8:55 AM 39.2 °F 34.2 °F 30.2 °F 70% 30.18 in 10.0 mi SSE 6.9 mph - N/A   Partly Cloudy
9:15 AM 41.0 °F 36.4 °F 30.2 °F 65% 30.18 in 10.0 mi SSE 6.9 mph - N/A   Clear
9:35 AM 42.8 °F 39.3 °F 30.2 °F 61% 30.19 in 10.0 mi South 5.8 mph - N/A   Clear
9:55 AM 42.8 °F 37.0 °F 30.2 °F 61% 30.18 in 10.0 mi SSE 10.4 mph - N/A   Clear
10:15 AM 44.6 °F 39.7 °F 30.2 °F 57% 30.16 in 10.0 mi SSE 9.2 mph - N/A   Clear
10:35 AM 44.6 °F 40.2 °F 30.2 °F 57% 30.16 in 10.0 mi SE 8.1 mph - N/A   Clear
10:55 AM 46.4 °F 41.9 °F 32.0 °F 57% 30.15 in 10.0 mi SE 9.2 mph - N/A   Clear
11:15 AM 46.4 °F 41.5 °F 30.2 °F 53% 30.15 in 10.0 mi SE 10.4 mph - N/A   Clear
11:35 AM 48.2 °F - 30.2 °F 50% 30.15 in 10.0 mi SSE 5.8 mph - N/A   Clear
11:55 AM 48.2 °F - 30.2 °F 50% 30.14 in 10.0 mi SE 8.1 mph - N/A   Clear
12:15 PM 48.2 °F - 30.2 °F 50% 30.13 in 10.0 mi SE 5.8 mph - N/A   Clear
12:35 PM 51.8 °F - 30.2 °F 44% 30.13 in 10.0 mi Calm Calm - N/A   Clear
12:55 PM 48.2 °F - 28.4 °F 46% 30.12 in 10.0 mi NW 4.6 mph - N/A   Clear
1:15 PM 48.2 °F - 30.2 °F 50% 30.11 in 10.0 mi West 8.1 mph - N/A   Clear
1:35 PM 48.2 °F - 33.8 °F 58% 30.11 in 10.0 mi West 11.5 mph - N/A   Clear
1:55 PM 48.2 °F - 32.0 °F 54% 30.10 in 10.0 mi West 10.4 mph - N/A   Clear
2:15 PM 48.2 °F - 33.8 °F 58% 30.08 in 10.0 mi West 11.5 mph - N/A   Clear
2:35 PM 48.2 °F - 32.0 °F 54% 30.08 in 10.0 mi WSW 11.5 mph - N/A   Clear
2:55 PM 48.2 °F - 30.2 °F 50% 30.08 in 10.0 mi West 13.8 mph - N/A   Clear
3:15 PM 48.2 °F - 30.2 °F 50% 30.07 in 10.0 mi WSW 13.8 mph - N/A   Scattered Clouds
3:35 PM 48.2 °F - 30.2 °F 50% 30.07 in 10.0 mi WSW 10.4 mph - N/A   Partly Cloudy
3:55 PM 46.4 °F 42.4 °F 30.2 °F 53% 30.05 in 10.0 mi SW 8.1 mph - N/A   Clear
4:15 PM 46.4 °F 41.5 °F 30.2 °F 53% 30.04 in 10.0 mi SSW 10.4 mph - N/A   Clear
4:35 PM 46.4 °F 41.1 °F 30.2 °F 53% 30.04 in 10.0 mi SW 11.5 mph - N/A   Clear
4:55 PM 46.4 °F 41.9 °F 30.2 °F 53% 30.04 in 10.0 mi WSW 9.2 mph - N/A   Mostly Cloudy
5:15 PM 46.4 °F 42.4 °F 30.2 °F 53% 30.04 in 10.0 mi WSW 8.1 mph - N/A   Overcast
5:35 PM 46.4 °F 42.9 °F 32.0 °F 57% 30.04 in 10.0 mi SW 6.9 mph - N/A   Overcast
5:55 PM 46.4 °F 41.9 °F 30.2 °F 53% 30.02 in 10.0 mi SSW 9.2 mph - N/A   Overcast
6:15 PM 46.4 °F 41.9 °F 28.4 °F 50% 30.01 in 10.0 mi South 9.2 mph - N/A   Overcast
6:35 PM 46.4 °F 42.9 °F 26.6 °F 46% 30.00 in 10.0 mi South 6.9 mph - N/A   Overcast
6:55 PM 44.6 °F 38.8 °F 26.6 °F 49% 29.99 in 10.0 mi South 11.5 mph - N/A   Overcast
7:15 PM 44.6 °F 38.4 °F 28.4 °F 53% 29.99 in 10.0 mi South 12.7 mph 17.3 mph N/A   Overcast
7:35 PM 42.8 °F 37.5 °F 30.2 °F 61% 29.98 in 10.0 mi South 9.2 mph - N/A   Overcast
7:55 PM 42.8 °F 37.0 °F 30.2 °F 61% 29.98 in 10.0 mi South 10.4 mph - N/A   Overcast
8:15 PM 42.8 °F 37.0 °F 30.2 °F 61% 29.97 in 10.0 mi SSE 10.4 mph - N/A   Overcast
8:35 PM 42.8 °F 38.0 °F 33.8 °F 70% 29.96 in 10.0 mi SSE 8.1 mph - N/A   Overcast
8:55 PM 42.8 °F 37.0 °F 33.8 °F 70% 29.97 in 10.0 mi SSE 10.4 mph - N/A   Overcast
9:15 PM 42.8 °F 38.6 °F 33.8 °F 70% 29.99 in 7.0 mi SSE 6.9 mph - 0.02 in   Overcast
9:35 PM 42.8 °F 38.0 °F 33.8 °F 70% 29.99 in 8.0 mi SE 8.1 mph - 0.06 in   Overcast
9:55 PM 42.8 °F 36.6 °F 33.8 °F 70% 29.97 in 7.0 mi SE 11.5 mph - 0.08 in   Overcast
10:15 PM 42.8 °F 37.0 °F 33.8 °F 70% 29.96 in 10.0 mi SSE 10.4 mph - N/A   Overcast
10:35 PM 42.8 °F 37.0 °F 33.8 °F 70% 29.95 in 10.0 mi SE 10.4 mph - 0.01 in   Overcast
10:55 PM 42.8 °F 37.0 °F 35.6 °F 76% 29.94 in 10.0 mi SSE 10.4 mph - 0.01 in   Overcast
11:15 PM 42.8 °F 37.0 °F 35.6 °F 76% 29.95 in 9.0 mi SE 10.4 mph - N/A   Overcast
11:35 PM 42.8 °F - 35.6 °F 76% 29.96 in 4.0 mi Calm Calm - 0.04 in   Overcast
11:55 PM 42.8 °F 39.3 °F 35.6 °F 76% 29.96 in 2.5 mi East 5.8 mph - 0.05 in   Overcast